Theta_e
337 339 337 333 334 336 337 336 336 336 334 335 336 338 338 338 339 337 337 338 335 334 333 331 331 331 331 331 330 328 327 326 328 330 331 332 334 336 335 335 335 334 335 335 335 336 336 336 336 334 333 331 330 332 333 333 334 336 336 335 335 334 331 331 330 330 330 331 331 331 330 329 330 330 330 330 329 328 327 328 328 328 328 328 329
334 337 337 334 333 334 335 336 337 334 333 335 338 339 338 338 337 335 335 337 334 333 331 330 331 331 330 329 327 326 326 326 327 330 331 332 334 336 335 335 335 334 334 334 334 335 336 335 336 334 333 331 330 330 331 334 334 334 335 335 333 333 333 332 331 330 330 331 330 331 331 330 330 330 329 329 328 327 326 326 326 325 324 324 326
335 336 339 337 334 334 334 336 336 335 335 336 337 338 339 338 335 333 332 333 334 333 331 332 332 331 329 328 326 325 327 328 328 330 331 331 333 334 335 335 335 334 334 334 334 334 335 335 336 336 334 331 329 329 331 335 334 333 335 334 333 333 332 333 333 332 330 328 329 330 330 329 329 329 328 327 327 326 325 325 324 324 323 322 324
334 335 337 335 334 336 336 336 335 334 336 337 337 337 337 336 333 333 332 330 333 334 333 335 334 331 330 329 328 327 327 329 329 329 329 330 331 332 334 335 335 334 334 333 333 333 334 334 333 333 333 331 329 327 329 333 334 334 335 333 333 332 331 333 333 333 332 329 329 329 329 329 329 329 327 326 325 324 324 324 323 324 323 323 324
335 333 333 334 335 338 338 337 336 336 338 338 338 336 335 334 332 333 330 326 332 336 335 335 333 330 329 327 326 327 327 328 328 328 327 328 328 329 330 331 333 333 333 332 332 333 333 333 332 332 332 332 330 328 327 329 331 332 333 332 331 330 331 332 332 334 333 330 330 329 328 329 328 328 327 326 325 324 323 323 323 323 323 323 324
336 333 332 334 337 339 339 338 337 338 337 337 337 335 334 335 334 335 332 327 332 337 336 333 331 329 328 327 327 328 328 328 327 327 326 326 327 328 328 328 329 330 330 330 331 332 332 331 331 331 331 331 330 330 329 328 328 329 330 330 331 331 331 331 332 333 333 331 330 328 328 328 327 327 328 327 325 323 323 322 322 321 322 322 322
333 333 334 337 339 339 338 338 336 334 335 335 335 335 335 336 334 334 335 331 332 335 334 331 330 329 329 328 328 327 328 327 327 327 325 324 325 325 327 327 327 327 327 328 328 328 328 328 328 328 328 328 328 329 329 328 328 328 329 329 330 331 331 331 331 332 332 332 330 328 328 328 328 327 327 326 324 323 321 321 320 320 321 321 321
333 334 334 338 340 339 337 337 335 332 333 334 334 334 335 335 334 333 334 334 333 333 333 331 330 329 329 328 326 325 326 326 325 324 323 322 323 323 324 325 326 326 326 326 326 326 326 326 326 326 325 325 325 326 326 326 326 327 330 330 330 330 330 330 330 331 331 331 331 330 328 329 328 328 328 326 325 323 320 320 319 319 320 320 321
334 335 336 338 339 338 337 337 335 333 332 332 333 334 334 334 334 334 334 335 335 334 333 331 329 329 329 327 326 323 323 324 323 323 323 323 323 323 323 324 325 326 326 326 326 326 326 326 326 326 325 324 324 324 325 326 327 330 332 332 331 331 330 330 330 331 330 330 331 331 329 328 327 327 328 326 325 322 319 320 319 319 319 318 319
334 336 338 337 337 337 337 337 335 333 333 332 332 333 333 334 334 334 335 335 336 336 334 332 329 328 327 327 326 323 322 323 322 323 324 323 323 323 323 323 325 326 326 326 325 325 326 326 326 326 326 325 325 325 325 326 329 331 332 333 332 332 331 331 331 330 330 330 331 330 329 328 326 326 326 325 323 321 319 319 319 319 318 317 317
332 336 337 337 336 335 335 335 333 332 332 332 331 331 333 334 332 332 333 332 333 334 335 333 330 327 328 327 326 324 323 323 322 323 324 323 323 323 323 323 324 325 325 325 325 325 326 326 325 325 325 325 325 325 325 326 329 331 331 332 332 331 330 331 331 330 329 329 328 327 326 326 325 324 324 323 321 320 319 319 319 318 317 316 316
330 333 335 336 334 334 334 332 331 330 330 331 331 331 331 331 329 330 332 332 331 332 333 333 331 329 329 328 327 325 323 323 322 322 322 322 323 322 323 323 324 325 324 324 324 325 326 325 324 324 325 325 325 325 325 326 329 331 330 330 330 330 330 330 330 330 329 327 326 324 323 323 322 320 320 319 318 319 319 318 318 316 316 316 315
331 331 333 334 334 334 332 331 331 330 330 330 331 331 330 328 328 330 331 330 330 329 330 332 332 331 330 329 329 326 323 322 322 321 321 321 321 322 322 323 323 323 323 323 324 324 325 325 324 324 325 325 325 325 325 325 327 329 330 330 329 329 330 329 329 328 327 324 322 320 320 320 318 317 318 318 317 318 319 317 316 316 315 315 314
330 331 332 332 334 334 332 331 331 332 333 332 331 332 331 328 328 331 331 331 331 330 332 333 332 332 331 330 329 327 324 323 322 321 320 320 320 321 322 322 323 323 322 323 323 324 324 324 324 324 324 324 324 324 324 323 324 326 328 327 327 327 327 326 325 324 322 320 318 316 315 315 314 313 315 315 316 317 317 317 315 315 315 315 313
329 331 332 333 334 333 332 331 331 333 333 332 332 332 331 330 330 331 331 331 331 331 333 333 333 333 333 332 330 326 323 323 321 320 321 320 320 321 322 323 322 322 322 322 322 322 322 322 323 323 324 323 323 323 323 322 322 322 323 323 322 322 322 322 321 320 319 317 315 314 313 313 313 312 312 312 314 316 316 316 316 315 314 315 314
327 329 332 334 334 333 332 331 330 332 333 332 331 331 331 330 327 326 324 324 326 329 332 333 333 333 332 332 330 325 322 322 322 321 322 320 321 322 323 322 321 320 320 321 321 320 319 319 320 321 321 321 321 320 320 320 320 320 320 319 318 318 317 317 317 317 317 316 315 314 314 314 314 313 313 313 314 315 316 316 315 314 314 314 313
327 328 332 334 335 333 331 331 331 332 332 333 331 330 330 325 320 323 324 322 324 328 331 332 332 332 331 331 329 325 322 322 321 322 322 321 321 322 322 321 320 319 319 320 320 319 318 317 318 319 319 318 317 317 316 317 317 317 317 317 316 316 316 315 315 315 316 316 316 315 315 315 315 315 314 314 315 315 315 315 315 315 314 314 314
328 330 331 333 333 332 330 331 331 331 332 332 332 331 328 323 321 326 327 325 327 329 330 331 331 331 331 331 328 324 321 321 321 321 322 322 322 321 320 320 319 318 317 317 318 317 316 315 316 316 316 316 315 314 315 315 315 315 314 315 315 315 314 314 314 315 316 317 316 316 316 317 316 316 315 315 315 315 315 316 315 315 315 315 315
331 330 330 331 332 331 330 329 329 329 329 331 331 330 327 326 327 329 330 329 330 329 329 330 330 330 331 330 327 323 322 322 321 320 320 320 321 321 320 318 317 317 315 315 315 315 314 313 314 314 315 314 314 314 313 314 313 313 312 312 313 313 314 314 314 315 317 318 318 317 317 317 316 317 317 316 316 315 315 316 316 316 317 317 316
328 329 329 329 331 330 330 328 328 327 327 329 330 329 329 329 329 330 331 331 330 329 329 329 329 329 329 329 326 323 322 322 320 320 319 318 318 319 320 319 317 315 315 315 314 313 313 313 313 313 313 313 313 314 313 312 312 312 312 312 313 313 313 314 314 315 316 317 317 317 317 317 317 316 316 317 317 316 316 316 316 317 317 317 317
327 327 327 327 329 329 328 328 328 327 326 328 330 329 329 330 329 330 331 331 330 329 329 329 329 329 329 328 326 323 322 321 321 322 321 318 315 313 314 318 318 316 315 315 315 314 313 313 312 311 312 312 313 313 313 313 312 313 313 313 313 312 313 314 314 314 315 315 316 316 316 316 316 316 316 316 316 316 316 316 316 316 316 316 317
326 326 326 326 328 328 327 327 327 327 326 327 329 330 330 329 329 330 330 331 330 329 329 329 329 329 329 328 326 323 321 321 323 324 322 320 317 311 311 316 318 316 315 314 315 315 314 314 313 313 312 312 313 314 314 314 314 314 314 314 314 313 313 313 314 314 314 315 315 314 314 315 315 315 315 315 314 315 315 315 315 315 315 316 316
324 324 324 326 327 327 327 327 327 327 327 328 328 328 328 328 328 329 330 329 328 328 329 329 329 329 328 328 326 323 321 320 323 324 323 322 320 318 318 318 318 317 316 314 315 316 315 315 315 315 313 313 314 315 316 315 314 314 315 315 315 314 314 313 313 313 313 314 314 314 313 313 314 314 314 314 314 314 315 314 315 315 315 315 315
322 323 323 325 326 326 327 327 327 327 327 327 328 327 327 326 327 328 329 328 328 329 329 328 329 329 328 328 326 324 322 321 322 322 322 322 322 322 321 319 317 317 316 316 315 315 316 316 316 316 315 315 315 316 317 316 316 316 315 316 316 316 315 315 314 313 313 313 314 314 314 313 314 315 314 314 313 313 314 314 314 314 314 314 314
320 321 321 322 323 324 325 326 326 327 327 327 327 328 328 327 327 327 328 328 328 328 328 328 328 328 328 327 326 325 324 324 323 322 321 321 321 321 320 319 318 317 317 317 316 315 315 316 316 316 316 316 315 315 316 317 318 318 318 317 317 317 317 317 317 316 315 315 315 316 316 315 315 316 316 315 314 314 314 314 315 314 314 314 315
319 319 319 319 320 321 323 323 324 325 326 327 327 327 327 327 327 327 327 326 326 326 327 327 327 328 328 328 327 326 326 325 323 322 322 322 322 320 319 319 319 318 317 318 317 315 315 314 314 314 315 315 315 315 315 316 316 317 318 318 318 319 319 319 319 318 317 317 317 318 317 317 317 317 317 317 316 315 315 316 316 315 314 314 315
318 318 317 318 318 319 320 320 321 323 323 324 325 326 326 326 327 326 326 326 326 326 326 326 326 326 326 326 326 326 324 324 324 323 324 324 322 320 320 319 319 319 319 318 318 317 316 315 314 314 313 314 316 315 315 316 316 318 319 319 320 320 319 319 319 319 318 318 318 318 319 318 318 318 318 317 317 316 316 316 315 315 315 314 315
316 316 316 316 315 317 317 317 318 319 319 320 321 323 324 325 325 326 326 326 326 326 326 326 325 325 325 325 326 325 324 323 325 325 324 324 322 320 320 320 319 320 320 320 319 318 317 316 315 314 314 315 316 316 317 318 318 320 321 322 322 321 321 320 320 319 320 320 319 319 319 319 318 318 317 317 317 317 317 316 316 316 315 314 314
314 314 314 314 313 315 315 315 315 316 316 317 318 319 321 322 323 324 325 325 326 326 326 326 326 327 327 326 326 326 326 325 325 325 324 324 323 322 322 321 321 321 321 320 320 320 319 317 316 316 316 316 317 318 319 319 320 322 323 323 323 323 323 322 322 321 321 320 320 319 319 319 318 317 317 316 317 317 317 316 316 316 316 315 314
312 312 312 312 312 313 313 312 313 313 313 314 314 315 316 317 318 320 321 323 324 324 325 325 326 326 326 326 327 326 326 326 326 325 324 324 324 324 324 322 321 321 321 321 321 321 320 319 318 318 318 319 320 320 320 319 320 322 322 322 322 322 322 322 322 322 321 320 319 319 319 318 318 317 317 316 316 316 316 316 315 316 316 315 314
310 310 310 309 310 311 310 310 310 311 311 312 312 312 312 313 314 315 317 319 321 322 323 324 325 325 324 325 325 326 327 326 325 325 324 324 325 325 325 323 322 321 322 322 322 322 321 321 320 320 321 322 322 322 320 319 320 322 321 319 319 319 318 318 319 319 319 319 318 318 318 317 318 320 319 318 317 316 316 316 315 315 314 314 314
308 309 308 308 308 309 309 308 308 308 308 309 310 310 311 311 312 312 313 315 316 317 318 319 320 321 322 323 324 324 325 325 326 325 324 324 325 325 324 324 323 322 321 322 322 322 322 322 321 321 322 323 323 322 320 317 317 319 319 317 317 316 316 316 316 314 315 316 317 318 318 318 319 321 321 319 318 318 317 317 316 315 314 312 312
307 307 307 307 307 308 307 307 306 306 306 307 307 308 309 309 310 311 312 312 313 313 314 315 315 316 318 320 321 322 322 323 324 324 324 324 325 324 324 324 324 324 323 322 322 322 322 322 323 322 322 323 323 322 319 315 315 316 316 316 317 317 317 317 316 313 314 316 315 314 316 317 318 319 319 318 318 318 318 317 317 317 315 312 310
306 306 307 307 307 307 306 306 305 305 305 305 306 306 307 307 308 309 310 311 312 312 312 313 312 313 313 315 317 319 320 321 322 322 323 324 324 324 324 324 324 324 324 323 322 322 322 322 322 322 322 322 323 321 318 314 314 314 315 315 316 318 318 318 317 316 316 316 315 313 313 317 318 318 317 317 318 318 317 316 315 315 314 312 309
306 305 306 306 306 305 305 305 305 304 304 304 304 305 306 306 307 307 308 309 310 311 311 311 311 311 312 312 313 315 317 318 319 321 322 322 322 323 323 324 324 323 323 324 323 322 322 321 321 322 321 321 321 320 318 316 314 314 315 315 314 316 317 317 317 317 315 315 316 315 315 317 318 316 315 315 317 318 316 313 312 311 310 309 307
304 304 304 304 304 304 304 304 304 303 303 303 303 303 304 305 306 306 306 307 308 309 309 309 310 310 310 311 311 312 313 315 316 318 319 320 321 322 322 323 323 323 323 323 322 322 321 320 320 320 320 320 320 320 320 318 317 317 316 315 314 315 316 316 317 316 315 315 317 316 315 316 315 312 312 312 313 316 315 312 311 311 309 307 307
303 303 303 303 302 303 303 303 304 303 302 302 302 302 303 304 304 305 305 306 307 308 308 308 309 309 309 309 310 311 311 312 313 314 316 317 318 320 321 322 322 323 323 323 322 321 320 319 319 319 319 320 320 320 320 319 318 318 316 314 314 315 316 315 315 315 315 316 315 314 315 314 311 309 310 309 310 313 314 313 312 311 309 307 306
302 301 302 302 301 301 301 302 302 302 302 302 302 302 302 303 303 304 304 304 306 307 306 306 306 306 307 308 308 309 310 311 312 313 313 315 317 317 318 321 322 322 322 322 322 321 320 320 321 320 320 319 319 319 319 319 319 317 314 314 315 315 315 314 314 313 313 312 310 310 313 312 309 308 308 308 309 311 312 312 312 311 309 308 306
301 300 300 301 301 300 301 301 302 301 301 301 301 301 302 302 302 303 303 303 304 305 305 304 304 305 305 306 307 308 309 309 310 311 312 313 314 315 316 318 321 322 321 321 322 321 319 320 322 321 321 319 318 318 318 318 319 316 313 314 315 314 314 313 312 312 311 308 307 308 310 310 308 306 306 306 308 310 311 311 311 310 309 309 307
300 299 299 300 300 300 301 301 301 301 300 300 301 301 301 302 302 302 302 303 304 304 303 303 303 304 304 304 305 306 307 308 309 309 310 310 312 314 314 316 318 320 320 320 321 321 321 321 321 321 321 320 319 319 318 318 317 314 312 314 315 314 314 312 311 310 309 308 306 306 307 307 306 306 306 305 306 309 311 311 310 310 309 309 308
299 299 299 299 299 300 300 300 300 300 300 300 300 301 301 301 301 301 302 303 303 303 303 303 303 302 302 303 304 304 305 306 307 307 308 309 310 311 313 314 316 318 319 320 320 320 320 321 321 321 321 320 319 318 317 316 315 313 312 313 314 313 313 312 310 309 309 308 306 305 305 306 305 305 305 305 305 307 309 310 309 308 307 307 306
300 299 299 299 299 300 300 300 300 300 300 300 300 300 301 301 301 302 302 302 301 301 301 302 302 302 302 302 302 303 303 304 305 306 307 308 309 309 310 312 314 315 316 318 320 320 320 320 320 320 319 319 318 317 316 315 314 312 312 312 312 312 312 311 309 309 308 307 305 304 304 305 304 304 304 304 304 304 305 305 305 304 304 303 303
299 299 299 298 299 299 300 300 300 300 300 300 300 300 301 301 301 301 301 301 300 301 300 301 301 301 301 301 302 302 302 302 303 305 306 306 307 308 309 310 312 313 313 315 318 320 320 319 318 318 318 318 317 316 315 315 314 312 310 310 311 311 310 310 309 308 308 307 305 304 304 304 303 303 303 303 302 302 302 301 301 301 300 300 300
300 300 299 298 299 299 300 300 300 300 300 300 300 300 300 300 301 301 300 300 300 300 300 300 300 300 301 301 301 301 302 302 302 303 304 305 306 306 308 308 310 311 312 313 316 319 319 318 317 316 316 316 315 314 314 314 313 311 308 308 309 309 309 310 309 308 308 306 304 304 304 303 302 302 301 301 300 300 299 299 298 298 297 297 299
300 300 299 298 299 299 299 300 300 300 300 300 300 300 300 300 300 300 299 299 299 299 300 300 300 300 300 300 301 301 301 301 302 302 302 303 304 305 306 307 309 310 311 312 314 316 317 317 316 315 315 314 312 312 312 311 310 308 306 307 308 308 308 309 309 308 308 305 304 304 303 302 301 300 299 299 298 297 297 296 295 295 297 299 300
299 299 299 298 299 299 299 300 300 300 300 300 299 300 300 300 300 299 299 299 299 299 299 299 299 299 300 300 300 300 301 301 301 301 301 302 302 303 304 305 307 308 310 311 312 314 314 315 316 315 314 313 311 310 310 308 307 307 306 307 307 307 307 308 308 307 306 305 303 303 302 300 298 298 298 297 296 294 295 295 295 296 299 300 300
299 299 299 298 299 299 299 300 300 300 300 299 299 299 299 299 299 299 299 299 299 299 299 299 299 299 299 299 299 299 300 300 300 301 301 301 302 302 302 303 304 306 309 310 310 311 312 313 315 315 314 313 311 309 308 307 306 306 307 306 306 306 306 307 307 306 305 303 301 300 299 298 297 298 298 296 294 294 296 297 298 298 299 299 298
299 298 298 298 299 299 299 299 299 299 299 299 299 299 299 299 299 299 299 299 299 299 298 298 298 298 298 298 298 298 298 299 299 300 300 301 301 301 302 303 303 305 306 308 309 311 311 312 313 314 313 312 312 310 308 307 306 307 307 305 304 305 306 306 305 304 303 301 299 298 297 296 296 297 297 296 296 297 298 298 299 299 298 298 296
298 298 298 298 298 298 299 299 299 299 299 299 299 299 299 299 299 299 299 298 298 298 298 298 298 298 298 298 298 298 298 298 299 299 300 300 300 301 301 302 303 303 305 308 309 310 311 311 312 312 311 311 311 310 309 308 308 308 306 304 304 306 306 304 304 303 301 299 297 297 297 296 296 297 298 298 299 299 298 298 298 297 298 298 297
298 298 298 298 298 298 298 298 299 299 299 299 299 299 299 299 299 298 298 298 298 298 297 297 297 298 298 298 298 298 298 298 298 298 299 300 300 300 300 301 302 303 305 306 307 308 309 310 309 307 307 308 309 310 309 308 307 306 305 304 305 306 305 303 303 302 300 298 297 297 298 298 298 299 299 300 300 299 298 298 297 296 296 297 295
297 297 298 298 298 298 298 298 298 298 299 299 299 299 299 298 298 298 298 298 298 297 297 297 297 297 297 297 297 297 297 297 297 297 298 298 299 300 300 300 300 300 302 304 304 304 306 308 307 305 303 304 305 306 308 307 306 305 304 304 305 304 303 303 301 300 299 298 298 299 299 299 299 299 299 299 299 298 298 298 297 296 296 296 295
Wind_Speed
11 14 16 15 14 13 11 10 10 11 10 9 12 13 11 11 11 13 14 13 13 12 11 11 14 14 12 11 10 9 8 7 7 6 5 5 6 7 6 6 5 6 6 5 5 4 3 4 4 7 9 9 9 10 10 8 7 6 5 5 6 6 7 8 8 9 7 7 7 4 3 4 2 1 1 1 2 2 2 2 3 3 2 1 1
11 12 14 15 16 15 12 11 12 14 12 14 15 13 11 10 10 12 14 12 10 10 12 12 10 9 8 7 8 8 7 7 6 6 6 6 6 7 7 6 6 5 6 5 4 4 4 3 3 5 10 11 9 11 12 8 7 6 5 6 6 5 6 6 9 10 7 6 6 4 3 2 0 1 0 1 1 2 3 3 3 3 2 2 3
12 11 9 13 17 17 15 14 15 18 18 17 13 10 8 6 5 9 13 11 9 9 9 6 6 9 8 8 7 7 7 7 7 6 6 6 6 6 7 7 6 5 5 6 5 5 4 3 3 3 7 9 8 11 12 8 7 6 5 5 5 5 5 4 5 6 5 9 7 3 3 3 2 2 1 1 1 2 3 3 3 3 3 3 3
13 9 7 8 13 17 16 15 17 18 16 12 9 8 5 3 5 9 12 10 9 7 7 8 10 11 11 10 9 9 9 8 7 6 6 6 6 5 5 5 6 5 5 5 5 5 5 4 5 4 5 7 7 9 11 10 9 9 7 6 6 6 6 4 4 5 4 9 6 1 2 3 2 4 4 3 3 3 2 3 3 3 4 3 3
12 13 6 6 10 14 16 16 16 15 14 12 12 10 9 5 4 8 14 13 10 9 9 9 11 11 11 9 9 9 9 8 7 6 6 6 6 6 5 5 5 5 4 4 4 4 4 4 4 4 4 7 9 8 8 10 11 11 9 8 7 6 4 4 4 5 3 4 4 2 2 2 1 4 6 4 3 3 3 4 3 3 4 3 3
11 13 12 12 11 12 15 16 14 12 12 13 13 11 11 11 10 15 17 12 10 11 9 8 9 8 8 7 7 7 7 7 7 6 6 6 6 5 5 4 4 5 4 4 4 3 3 2 2 3 3 4 8 10 7 8 11 11 9 8 7 6 3 4 5 5 4 4 6 4 2 2 4 7 6 4 3 3 3 4 5 4 4 5 4
8 10 14 13 14 14 14 16 18 17 15 14 14 11 10 10 10 14 17 13 10 9 8 8 8 7 6 5 5 6 6 7 7 6 6 6 5 5 4 4 3 4 4 4 4 4 3 2 1 2 3 3 4 7 7 7 7 9 8 7 7 6 5 5 5 5 5 5 6 7 4 3 6 7 4 4 5 3 4 5 6 6 6 7 6
10 13 13 12 15 16 17 17 21 25 22 19 18 14 12 11 9 11 14 15 13 11 9 10 9 7 5 4 4 5 6 7 7 6 6 5 5 4 4 5 4 4 4 3 4 3 3 2 1 1 2 3 4 5 6 6 5 6 6 5 5 5 5 4 3 4 5 5 6 8 8 5 5 5 3 2 4 4 5 5 6 7 7 8 7
14 13 12 12 14 17 19 20 21 24 23 21 20 17 16 15 12 11 11 12 14 13 11 11 10 8 6 5 5 6 7 7 6 6 6 5 5 4 4 5 4 4 4 4 3 3 2 2 2 2 2 2 3 5 5 5 6 6 5 4 4 4 3 3 3 3 4 4 5 6 8 8 8 6 3 3 3 3 5 5 6 7 7 7 7
12 11 10 13 16 17 18 20 21 20 17 16 17 16 17 17 15 13 10 10 12 13 12 11 10 8 7 6 6 7 7 6 6 6 6 6 5 5 4 5 5 4 4 4 3 3 3 3 3 3 4 3 4 5 6 6 6 7 6 6 5 4 3 3 3 2 2 4 5 5 6 8 9 7 4 5 6 4 5 5 7 7 7 7 6
11 10 10 15 19 19 18 19 21 21 20 20 20 21 22 21 19 16 12 11 13 13 12 12 11 9 8 7 6 7 6 6 6 6 5 6 6 5 5 5 5 5 5 4 3 4 5 5 5 5 5 5 5 5 5 5 6 7 7 7 7 6 5 4 3 2 3 3 3 4 3 3 4 4 5 7 6 4 4 5 7 7 8 8 5
12 11 11 14 19 20 21 21 20 23 26 25 21 22 24 23 22 19 15 13 14 15 13 13 12 11 9 8 7 7 7 6 6 6 6 5 5 6 5 5 5 5 5 4 4 5 5 5 5 5 6 6 6 6 6 5 6 6 7 7 7 7 7 6 5 4 4 4 3 4 3 3 2 1 3 4 3 5 5 4 7 7 7 8 7
11 11 12 13 16 19 20 20 20 22 22 20 16 16 18 21 21 20 19 17 16 16 14 12 12 11 10 10 8 8 8 7 6 5 5 5 5 6 6 6 6 5 5 5 5 5 5 5 5 6 7 7 7 7 7 7 6 6 7 8 7 8 7 7 7 6 6 5 5 4 3 4 3 2 2 1 2 6 5 4 7 7 6 7 7
12 11 13 14 15 18 20 20 20 18 17 19 18 15 15 19 20 19 19 18 15 13 12 11 11 10 10 10 9 9 8 8 7 6 5 5 6 6 6 7 7 6 5 5 5 5 5 6 6 6 7 8 8 8 8 8 8 8 9 9 9 9 9 9 8 8 7 6 5 4 4 5 4 3 2 2 3 5 4 4 6 5 4 5 7
11 11 13 16 18 20 20 19 17 16 17 20 21 18 15 15 17 16 15 13 11 11 11 11 11 10 10 10 9 9 8 8 7 6 5 5 6 6 7 7 7 7 6 6 6 6 6 6 6 7 7 8 8 8 8 8 8 9 9 9 10 9 10 10 9 8 8 7 6 6 6 6 5 4 3 2 3 4 3 4 5 4 3 3 5
10 9 12 17 19 20 18 15 14 14 13 15 19 19 17 16 18 18 16 14 12 11 10 10 11 10 10 10 10 9 9 8 8 7 6 6 7 6 7 7 8 7 6 6 6 6 7 7 7 8 7 8 8 8 8 8 8 8 8 9 9 9 9 9 9 9 9 8 7 6 6 7 6 5 4 3 3 3 4 5 4 4 4 3 3
10 10 13 16 16 16 16 13 12 12 11 13 18 20 21 24 26 22 18 19 18 13 11 10 10 10 10 10 11 11 11 10 9 9 8 8 7 7 8 8 8 8 7 7 7 7 7 8 8 8 8 8 8 8 8 8 8 8 8 9 9 9 10 9 9 9 9 8 8 7 7 7 7 6 6 5 4 4 6 4 3 4 2 3 4
12 12 14 15 15 16 15 12 10 9 10 11 14 17 22 25 24 19 17 18 14 11 11 10 10 10 11 11 12 12 12 11 11 10 9 8 8 8 9 9 9 9 9 8 8 7 8 8 9 9 8 8 8 8 8 8 8 8 8 9 9 9 10 10 9 9 9 8 8 8 8 8 8 7 7 6 5 5 5 2 1 1 2 2 3
12 12 11 12 15 17 16 14 11 9 9 10 10 13 15 15 14 13 13 12 9 9 10 10 10 10 11 12 13 13 13 12 12 11 9 9 9 10 9 9 10 10 9 9 9 8 8 8 9 9 8 8 8 8 8 8 8 8 8 9 9 9 9 10 9 9 8 8 8 8 8 8 8 7 7 7 5 4 4 2 3 3 5 6 4
10 10 10 10 13 17 17 16 13 10 11 11 9 9 9 8 8 9 10 9 8 8 8 9 10 9 11 12 13 13 13 13 13 12 10 9 10 11 11 10 10 10 9 10 9 8 8 8 8 9 9 9 8 8 8 9 9 9 9 9 9 9 10 10 9 9 8 8 8 8 8 7 6 6 7 6 5 4 4 4 5 4 4 5 3
9 10 9 7 9 14 16 15 14 13 13 12 10 10 10 9 9 10 10 10 9 7 7 8 8 9 10 12 12 13 13 13 13 12 11 10 10 13 14 10 9 10 10 10 9 9 9 8 9 9 9 9 9 9 9 9 9 9 9 9 9 9 10 9 9 9 8 7 7 7 7 6 4 5 5 4 4 4 3 4 3 3 3 3 1
8 10 10 9 9 11 12 12 13 14 14 13 11 11 12 11 12 12 12 12 11 9 9 9 9 9 9 10 11 13 14 14 14 12 12 12 11 13 14 11 9 10 10 10 10 9 9 9 9 9 9 9 9 9 8 9 9 10 9 8 8 8 9 9 8 8 7 6 6 6 6 4 3 3 3 2 4 4 3 3 2 1 3 2 1
9 9 9 11 12 12 11 11 12 12 12 12 12 12 12 13 13 13 13 13 11 10 10 10 10 9 9 11 11 12 13 14 13 12 11 12 12 12 12 11 10 10 9 9 10 10 10 10 10 10 10 10 10 9 8 9 9 10 9 8 7 8 8 8 7 7 7 6 5 5 5 3 2 3 2 1 3 3 4 2 3 1 2 2 3
11 10 9 10 12 13 13 12 12 12 11 12 12 13 13 13 13 13 13 12 11 9 9 10 10 9 8 10 12 12 13 13 12 12 11 12 12 12 12 11 11 10 9 9 10 10 10 10 10 10 10 10 10 9 9 9 9 9 9 8 8 8 8 7 7 6 7 7 6 5 5 4 3 3 3 1 3 4 3 2 3 2 2 2 2
12 12 11 11 11 12 13 13 14 13 12 11 12 12 13 13 12 12 11 11 11 10 10 10 10 9 9 10 11 11 11 11 12 12 12 13 13 12 11 11 10 11 10 9 10 11 11 11 10 10 11 10 10 10 9 9 9 8 8 8 8 8 7 7 6 6 6 6 6 5 5 5 5 4 4 3 3 4 3 2 4 4 4 5 3
13 13 12 12 11 11 12 12 13 14 14 13 12 11 10 11 11 11 10 11 10 10 10 10 8 8 8 9 10 10 10 11 12 11 11 12 13 13 12 12 11 11 11 10 11 11 11 12 12 11 12 12 11 11 11 10 10 9 8 8 8 8 8 7 6 6 6 6 6 6 6 6 6 6 5 4 3 4 4 3 3 5 3 5 5
13 12 13 13 13 13 14 13 12 12 12 13 13 12 10 10 10 10 9 9 9 9 10 10 8 8 8 9 11 11 11 12 12 10 10 11 12 13 13 12 11 11 11 11 12 12 12 12 13 13 13 13 13 13 12 12 12 11 10 9 8 8 7 7 7 6 7 7 7 7 8 8 8 7 7 6 5 5 5 4 4 5 4 2 4
13 13 14 14 13 13 14 15 15 14 12 11 12 11 10 10 10 9 8 7 7 7 8 8 8 8 8 9 10 11 11 11 10 9 9 10 11 12 12 12 12 12 12 12 12 13 13 13 13 14 14 14 14 14 14 14 13 12 11 10 9 8 7 7 7 6 6 7 7 7 8 8 9 9 9 8 8 7 7 7 6 6 6 4 4
14 14 14 14 13 13 14 16 17 16 15 13 12 11 10 10 9 8 8 7 6 5 6 6 5 5 5 6 7 8 8 9 9 9 9 9 9 10 11 12 12 12 13 13 13 13 13 14 14 14 14 15 15 15 15 15 15 14 12 10 8 8 7 6 6 4 4 5 7 7 8 9 10 11 11 11 10 9 9 9 7 6 7 8 7
14 14 14 13 14 14 16 17 17 16 16 14 14 13 12 11 9 8 8 7 6 5 4 4 3 3 2 3 4 5 6 7 8 9 9 8 9 9 9 10 12 13 13 14 13 13 14 14 14 15 15 15 15 15 17 17 17 16 14 12 10 7 5 3 2 0 2 4 7 8 9 10 12 13 13 14 14 13 12 12 11 8 7 8 8
14 14 13 13 14 15 16 17 17 17 16 15 14 13 13 13 11 9 8 7 6 6 5 4 4 3 1 2 3 4 5 7 7 8 9 9 10 9 9 11 11 12 13 13 14 14 14 15 15 16 16 16 16 17 21 22 21 20 18 17 15 10 5 2 2 1 2 4 6 8 8 9 11 11 11 12 12 13 13 15 17 15 12 10 10
13 13 13 13 13 14 15 16 16 16 16 15 14 14 14 13 11 10 10 8 8 8 7 6 5 3 2 1 0 2 3 5 6 8 9 10 11 11 11 12 12 12 12 13 14 14 14 15 16 17 18 18 17 20 25 25 24 23 21 19 17 14 10 9 7 6 6 6 6 6 5 6 9 9 8 7 8 9 10 13 16 17 16 15 15
13 12 12 12 13 14 15 15 15 15 15 15 14 14 13 13 12 11 9 8 9 9 9 8 7 6 5 4 3 2 2 2 4 6 7 9 10 12 12 13 13 13 13 14 15 16 16 16 17 18 19 19 19 22 25 25 24 23 21 18 15 13 14 13 13 14 12 8 8 9 7 6 8 8 7 6 7 9 8 9 12 15 18 20 20
12 12 12 12 13 13 14 14 14 14 14 14 14 14 13 12 11 10 9 8 8 9 9 9 8 8 8 7 6 5 4 3 3 4 5 7 9 10 11 12 13 14 15 17 17 17 18 18 18 19 20 20 20 21 23 25 25 22 20 19 16 12 12 12 13 14 12 9 9 11 11 8 6 5 6 6 6 7 7 7 8 11 14 17 18
11 11 12 13 13 13 13 13 13 13 13 13 13 13 12 11 10 10 9 9 8 8 9 8 8 8 8 8 7 6 6 5 5 4 5 6 7 9 10 11 12 13 15 17 19 21 21 21 21 22 22 22 21 21 22 24 24 20 20 22 20 15 13 13 12 12 12 11 9 9 9 7 5 5 7 7 6 5 5 4 5 7 8 9 11
11 11 12 12 12 12 12 11 11 11 12 12 13 12 11 10 10 9 9 8 7 7 8 7 7 7 8 8 8 7 6 6 6 6 6 7 8 9 10 10 11 12 13 15 18 21 22 23 24 25 24 23 21 19 21 23 23 21 21 23 21 18 17 15 13 11 11 10 8 7 7 6 5 5 5 6 8 7 5 4 7 8 7 8 11
11 11 10 10 10 10 10 10 10 10 11 11 11 11 11 10 10 10 10 9 8 7 7 7 6 7 7 8 8 8 7 7 7 7 7 8 8 9 10 10 11 12 14 15 17 18 20 22 23 24 24 23 20 17 19 24 24 22 22 23 21 19 18 17 15 13 11 11 11 9 8 6 5 5 3 5 8 8 6 6 8 8 6 7 9
11 10 8 7 8 8 8 8 9 9 10 10 9 9 9 9 9 9 9 9 8 7 7 7 7 8 8 8 8 8 9 9 8 8 8 9 9 10 10 11 11 13 14 15 16 17 19 19 19 21 21 20 20 18 18 22 25 23 24 25 22 20 19 18 17 14 12 12 14 12 10 7 6 6 5 7 9 9 6 6 8 8 7 7 6
10 9 7 6 6 6 6 6 6 7 8 8 8 8 7 7 7 7 7 7 7 7 8 9 9 9 9 9 9 9 9 9 9 10 10 10 11 11 11 12 12 13 14 15 16 18 19 19 17 18 19 18 18 19 19 21 24 25 27 27 22 21 21 19 18 16 13 12 13 13 12 9 8 7 8 9 11 8 5 6 7 7 7 7 7
9 8 7 6 6 5 5 6 5 6 6 7 7 7 7 7 7 7 7 7 7 8 9 10 10 11 11 11 11 10 10 10 11 11 11 12 12 12 12 12 13 14 15 15 17 17 18 18 16 16 18 18 19 22 23 24 25 26 28 25 21 22 23 20 18 16 14 13 13 13 12 10 9 9 9 9 10 8 5 5 5 4 3 5 8
8 7 6 7 6 5 6 6 6 6 7 7 7 7 7 7 7 7 7 8 9 10 10 11 11 12 12 12 12 12 12 12 12 13 13 13 13 13 13 13 13 14 15 16 17 18 18 18 17 16 16 16 18 22 24 25 26 29 30 25 18 17 20 20 18 17 16 15 13 13 14 12 10 10 9 9 10 9 7 6 4 2 5 8 7
7 6 7 7 6 5 6 7 6 7 7 7 7 7 7 7 7 8 8 9 10 11 11 12 12 12 13 13 13 14 14 14 14 14 14 14 14 14 14 15 14 14 16 16 17 17 17 16 15 14 16 17 17 21 23 24 27 29 30 27 18 12 12 15 16 16 16 16 15 15 16 15 12 12 11 9 9 9 8 7 5 3 4 4 2
6 6 7 8 7 6 7 7 7 7 7 7 7 6 6 7 7 8 8 9 10 11 12 12 12 13 14 14 15 15 16 16 15 15 15 16 16 16 15 16 16 15 17 17 17 16 15 12 9 8 10 12 14 17 20 22 26 26 25 24 17 10 10 15 16 16 17 18 17 17 18 16 14 12 11 9 9 8 7 6 4 4 3 3 2
6 6 7 8 8 7 8 8 7 8 8 7 7 7 7 8 8 9 9 10 11 11 12 12 13 14 14 15 16 16 16 17 16 17 17 17 17 17 17 18 18 17 18 18 17 16 14 12 10 9 8 8 11 13 15 20 25 25 25 24 13 6 11 18 16 15 18 18 18 19 18 17 14 12 10 9 7 6 5 3 2 2 1 1 1
7 7 8 9 9 8 8 8 8 9 8 7 7 8 9 10 10 10 11 12 12 12 13 13 14 14 15 16 17 17 18 18 18 18 19 19 18 18 19 19 19 19 19 19 19 18 16 15 14 13 12 11 13 13 14 20 25 23 24 23 12 6 11 15 13 16 19 17 17 19 18 16 14 11 9 8 6 4 3 2 2 2 2 2 1
6 7 7 8 8 7 7 8 8 8 7 7 7 8 9 10 10 11 12 13 14 14 15 15 15 15 16 16 17 17 18 18 19 19 20 20 20 20 20 20 20 20 20 20 19 19 19 17 15 14 14 14 15 18 21 25 27 25 25 23 15 12 14 13 12 18 19 15 16 18 17 15 12 10 8 7 6 5 4 4 4 4 3 1 1
6 6 7 7 7 7 7 7 7 7 7 7 8 9 9 11 12 14 14 15 16 17 17 18 17 17 17 17 17 17 17 18 19 19 20 21 21 21 22 22 22 22 21 21 22 21 20 18 16 15 16 16 18 22 27 30 31 31 30 26 21 19 19 15 15 18 18 16 18 18 16 14 13 12 10 8 6 6 6 5 4 4 3 1 1
6 6 6 7 7 6 6 7 7 8 8 9 9 11 12 13 15 16 17 17 18 19 20 20 20 20 20 19 19 19 19 19 19 19 20 21 21 21 22 22 22 23 23 22 21 17 15 14 13 11 13 17 20 23 29 34 36 35 33 29 25 24 21 18 18 20 19 19 19 17 15 14 13 12 11 8 6 7 6 4 3 3 3 2 2
6 6 7 7 6 6 6 7 8 9 10 11 11 12 14 15 16 17 18 19 20 20 20 21 20 20 20 20 20 20 20 20 19 19 20 22 22 23 23 22 21 22 21 19 14 6 4 4 5 6 8 13 16 21 27 33 37 38 36 32 30 29 24 21 21 22 22 22 19 16 15 13 12 12 11 9 9 8 6 5 4 2 3 3 2
7 7 7 6 6 6 6 7 8 9 10 11 12 13 15 16 17 18 18 20 21 21 21 20 19 19 19 18 19 19 19 20 20 20 21 22 23 25 26 26 25 22 17 15 12 5 2 3 5 7 7 10 13 16 24 30 33 33 33 32 31 30 26 23 24 23 23 22 19 16 15 15 13 12 11 10 9 8 6 6 5 3 3 2 1
8 8 7 5 5 5 6 7 9 9 10 12 13 14 16 16 17 19 19 20 20 20 19 18 18 18 18 18 18 19 19 20 20 20 21 22 23 24 25 27 29 29 24 19 16 12 7 6 7 8 8 7 3 8 19 30 32 31 31 30 29 27 24 24 26 24 21 19 17 15 15 15 13 11 10 9 9 7 6 6 5 4 4 3 1
Wind_Direction
190 192 170 159 146 136 128 130 129 108 103 126 150 168 168 169 168 151 157 159 155 162 156 169 183 176 168 160 148 141 141 142 136 130 132 139 148 150 153 148 150 170 176 187 195 183 185 187 177 161 161 187 193 169 177 191 178 173 177 180 185 183 177 172 171 166 138 110 106 99 89 74 64 192 193 114 122 115 113 95 90 82 74 68 3
178 194 174 150 128 117 112 120 123 117 140 176 173 168 164 169 170 151 148 154 157 167 176 190 185 155 140 133 127 126 127 131 127 117 117 125 132 132 134 139 147 162 165 162 170 176 176 176 181 162 151 167 183 167 167 177 170 173 178 177 187 192 187 174 175 180 162 135 128 118 116 92 101 233 316 116 140 121 127 113 106 99 78 65 30
172 187 159 120 117 125 129 135 142 144 163 183 170 148 151 156 136 110 109 129 154 159 162 156 110 104 102 92 91 96 97 97 104 107 110 112 108 114 125 135 148 156 154 154 162 171 175 166 162 151 139 155 179 170 164 167 169 179 189 189 188 192 196 181 192 205 154 133 146 147 147 156 173 187 163 138 125 113 127 122 123 115 95 79 43
165 141 87 99 137 142 140 144 150 154 159 161 139 128 148 116 67 81 100 134 154 127 107 97 93 97 93 84 81 87 95 95 97 99 99 100 95 93 106 121 137 142 151 163 164 164 176 178 174 181 160 154 176 182 171 169 172 179 188 195 201 205 198 177 209 236 154 134 146 157 156 170 185 171 161 146 136 137 127 97 93 88 87 87 68
138 111 111 198 175 141 140 147 147 149 144 134 129 137 152 141 107 119 131 158 160 122 115 113 107 104 98 98 94 99 112 116 112 106 102 104 98 92 93 102 116 122 135 146 142 153 170 175 173 177 166 154 162 174 177 179 181 180 180 186 208 226 206 170 201 235 216 155 151 152 167 188 222 172 159 148 139 135 124 103 87 71 73 72 67
97 126 174 193 174 144 142 142 131 124 118 122 136 146 150 146 151 143 138 156 154 130 137 130 116 115 111 114 116 121 127 124 122 121 118 113 104 103 100 97 106 114 121 122 127 142 140 148 169 156 156 159 159 160 165 179 182 180 179 185 204 228 217 188 197 219 236 202 173 176 191 182 178 178 168 146 134 115 106 101 90 83 75 72 70
101 173 189 172 155 146 139 131 121 116 114 124 135 135 134 134 144 144 135 142 148 143 147 131 118 124 125 123 125 129 122 114 117 117 113 107 105 112 108 106 116 120 129 132 135 144 141 155 194 182 179 181 165 162 169 184 190 189 191 192 200 209 211 209 198 192 206 202 184 178 182 198 189 188 183 147 146 132 108 90 74 72 67 66 68
155 199 195 167 149 142 137 129 126 129 134 145 149 139 134 131 123 126 132 142 157 162 147 131 131 136 132 124 113 113 115 117 119 114 110 109 114 122 121 124 124 120 129 131 126 131 134 144 154 183 180 175 169 161 170 186 188 189 191 189 193 194 199 218 203 187 195 190 186 181 174 186 199 197 200 175 164 142 128 108 81 75 69 65 65
171 188 184 167 147 141 138 129 128 135 141 149 155 152 149 148 135 126 131 140 150 153 144 141 144 139 128 118 109 112 121 126 126 118 115 119 123 124 122 121 117 114 122 122 120 120 115 111 108 108 108 125 142 134 138 152 154 159 162 158 168 171 168 180 180 194 211 183 178 186 173 167 182 196 208 240 228 155 134 123 110 102 86 76 74
164 166 166 157 140 133 134 128 122 122 127 137 146 153 164 168 160 149 141 137 141 144 144 147 144 138 134 127 119 123 133 136 129 124 125 129 132 130 131 131 128 126 120 116 106 92 95 98 93 96 88 76 83 102 120 130 135 139 138 135 135 140 146 149 163 190 208 189 181 188 181 164 171 186 184 210 220 158 126 136 136 126 104 91 86
154 154 154 147 134 129 131 130 124 124 140 157 158 159 167 177 179 169 156 156 161 157 150 146 147 154 153 139 127 130 141 144 137 139 143 142 142 143 146 144 137 136 127 115 98 87 90 95 97 95 84 79 80 89 110 124 129 130 129 129 126 124 127 132 141 134 145 178 179 165 164 138 154 171 164 190 204 139 125 143 136 125 117 111 99
149 155 154 142 133 133 134 134 140 151 163 170 166 160 164 174 180 171 162 171 176 170 163 155 156 165 160 148 140 138 146 151 149 151 152 151 152 151 149 143 139 139 131 117 106 105 106 103 100 94 83 80 84 86 93 106 120 127 131 132 127 125 126 130 136 123 119 125 95 94 102 104 121 127 150 188 184 132 147 154 134 131 125 117 112
148 157 155 141 135 138 138 142 158 170 169 163 158 157 159 165 170 167 168 180 182 174 169 165 164 166 159 155 151 148 150 151 150 151 152 153 153 153 150 146 144 138 128 120 116 117 117 111 100 89 86 82 81 84 82 85 100 111 119 121 118 118 119 120 120 106 95 99 94 93 105 110 103 78 116 147 104 132 160 157 130 127 125 125 133
152 157 150 142 140 142 147 159 171 173 159 153 155 156 157 163 169 172 172 175 173 167 169 170 168 164 159 156 152 149 149 148 150 151 152 150 150 155 152 145 141 134 126 121 121 120 111 106 100 91 90 89 85 84 79 79 89 93 95 100 97 96 99 100 100 98 93 93 92 85 81 83 77 71 85 103 121 145 164 149 122 118 140 152 146
147 154 147 143 144 146 154 163 165 159 154 156 156 154 158 166 173 176 170 164 158 157 167 172 166 160 155 152 150 147 144 144 145 145 149 149 148 152 147 139 135 130 126 119 114 113 108 108 107 100 97 96 93 90 86 85 94 98 92 92 93 91 94 98 94 92 90 85 81 81 87 85 81 94 110 123 146 155 148 131 123 134 166 153 126
141 151 142 139 141 147 154 155 153 153 158 158 153 153 158 166 177 180 178 186 192 177 167 168 165 160 157 154 149 145 143 141 140 141 145 144 144 148 142 134 129 123 122 121 117 115 114 114 111 107 103 100 95 91 91 93 99 105 99 92 95 96 95 97 94 90 85 82 81 83 91 86 75 81 80 71 91 118 124 127 139 159 158 125 111
133 143 138 136 141 144 143 142 147 155 166 161 156 161 167 172 178 179 182 197 204 190 167 164 164 161 161 158 148 144 144 143 142 142 143 142 142 143 138 134 130 127 126 123 120 117 114 114 112 108 105 100 96 94 97 101 101 104 102 96 94 93 92 90 90 91 87 85 86 84 90 88 78 78 77 74 74 95 123 142 168 174 169 150 152
115 126 130 132 138 139 135 137 142 156 176 172 165 171 174 176 178 177 185 197 195 179 169 169 166 162 161 158 150 146 146 145 144 145 146 146 141 137 139 140 135 132 131 128 125 121 116 115 113 111 108 103 101 102 103 105 103 101 99 95 93 93 93 91 90 91 90 89 87 84 86 83 78 80 83 88 86 94 125 157 179 149 331 334 143
111 118 125 129 135 137 139 142 138 148 174 172 171 180 181 183 182 178 187 191 174 164 172 175 173 167 161 159 154 149 147 146 148 150 152 152 148 141 141 142 139 136 135 134 134 132 128 123 119 117 115 110 107 107 106 105 104 103 100 97 97 99 99 98 98 97 96 94 88 85 87 85 86 91 90 94 99 99 120 108 72 65 12 19 75
116 119 126 137 146 147 151 158 156 161 175 175 178 188 191 195 193 188 190 187 172 171 177 180 181 175 164 161 158 153 150 149 152 157 158 159 159 153 149 147 143 144 145 142 142 143 139 134 129 125 121 118 115 112 110 109 108 109 109 107 107 108 108 108 109 109 108 107 101 94 93 91 92 99 95 95 95 85 87 86 81 78 52 44 53
109 109 113 126 139 143 155 170 173 169 170 172 181 195 203 207 205 202 198 191 184 182 185 186 185 180 170 165 162 158 154 153 157 162 161 162 165 158 155 154 148 151 157 152 149 151 149 145 140 135 130 126 123 119 118 117 115 114 113 114 117 119 117 116 117 119 118 115 112 107 104 98 90 106 118 122 116 106 97 91 90 98 89 64 51
106 111 118 120 116 122 137 153 159 159 164 172 181 192 199 204 208 206 200 199 200 200 198 196 193 189 180 174 170 164 162 160 160 161 161 164 169 165 162 160 154 161 168 159 153 156 156 153 148 143 140 136 131 129 126 124 122 120 119 121 124 125 121 120 125 127 125 122 121 121 121 115 99 122 169 172 137 161 188 154 145 122 101 81 11
101 104 112 117 114 114 118 128 139 149 161 173 180 183 184 192 201 200 196 197 201 200 199 202 204 202 195 188 182 177 176 172 166 166 169 171 172 175 179 174 165 168 172 163 159 162 162 161 157 152 150 146 142 138 134 133 133 132 131 130 127 126 126 129 135 139 138 135 135 139 138 138 137 158 225 243 136 214 253 144 128 84 88 78 19
103 101 102 107 112 116 120 123 128 135 149 165 173 174 174 182 188 188 189 190 189 188 186 190 197 197 193 192 191 191 190 185 185 189 192 190 184 183 185 179 171 171 171 166 165 168 170 168 164 161 157 154 152 149 145 143 142 142 142 139 136 136 138 143 150 154 151 147 152 161 156 158 169 179 213 223 173 228 279 94 136 169 162 133 51
98 97 95 96 101 113 120 123 125 128 137 149 156 159 163 170 173 173 178 180 180 181 179 179 184 183 185 189 192 195 197 200 207 208 205 202 199 199 196 188 182 179 175 174 174 176 176 174 173 171 167 165 162 160 157 155 152 152 150 150 151 152 153 158 162 163 162 160 167 179 177 175 183 188 200 205 190 215 246 189 182 202 183 159 165
92 90 88 87 89 94 103 114 126 131 134 135 135 138 143 148 152 156 159 160 164 170 169 166 170 173 180 189 194 199 207 213 215 214 209 205 206 210 205 196 192 187 183 183 184 184 185 184 184 182 179 177 173 171 171 167 165 164 163 165 165 165 169 173 176 178 181 184 188 195 196 193 197 202 206 208 197 210 242 233 222 255 240 156 162
89 87 84 83 83 84 89 97 105 113 124 128 124 123 128 131 132 136 140 142 149 159 155 151 158 168 178 190 194 197 207 212 212 212 211 206 206 209 205 201 200 196 193 194 193 193 194 193 192 191 190 187 182 181 180 176 176 175 174 175 173 175 180 182 185 192 198 202 205 211 215 214 215 218 218 221 219 219 240 252 246 271 287 175 179
90 87 83 80 80 80 83 87 89 92 99 106 108 113 118 114 109 111 118 125 138 150 146 146 159 170 178 190 190 188 197 207 208 210 212 207 206 208 210 211 211 206 203 204 203 201 200 201 200 196 194 191 187 185 182 180 180 177 175 178 177 179 187 192 197 206 214 217 223 229 230 230 231 232 229 227 228 223 228 242 245 248 260 254 238
91 87 83 80 78 75 72 75 79 84 90 94 96 102 104 100 102 110 117 119 125 135 137 139 151 162 174 189 189 186 197 205 208 213 214 211 211 214 217 220 220 217 215 216 215 210 206 207 205 201 197 193 189 188 186 185 186 181 175 171 167 173 185 192 198 213 224 233 250 254 250 253 248 240 234 229 230 231 228 235 247 246 243 245 244
89 84 81 78 76 74 71 69 69 70 75 79 82 85 88 90 96 106 112 115 115 114 111 116 129 142 170 192 192 194 202 207 211 216 217 218 223 226 226 227 227 226 223 223 223 218 214 213 210 206 200 194 190 191 190 187 185 180 170 159 149 143 141 147 152 232 220 227 258 263 260 266 261 250 247 243 240 242 239 237 244 249 243 237 237
89 85 81 76 71 69 68 66 64 63 63 63 66 69 70 73 76 81 86 88 89 91 88 82 85 97 139 193 193 196 204 208 212 218 223 228 231 232 234 235 234 232 228 226 225 221 218 216 214 210 202 195 195 197 195 191 187 184 178 172 164 149 131 123 97 33 272 243 261 266 256 257 257 252 253 251 245 244 240 237 239 242 239 229 225
86 82 78 74 68 63 61 59 58 57 56 54 55 57 57 57 58 64 73 75 71 70 68 64 58 50 35 8 304 205 212 213 213 218 224 231 235 237 238 238 234 231 230 227 224 221 218 217 217 216 209 203 205 210 208 202 197 197 196 194 190 190 207 223 221 235 251 246 253 262 245 235 239 236 237 249 258 254 243 237 237 236 233 226 222
79 76 72 67 63 58 54 52 50 49 49 47 45 46 47 47 47 49 58 71 74 68 62 57 48 36 27 10 348 320 283 242 226 226 225 229 237 238 239 239 235 234 234 229 223 222 222 220 220 220 217 213 213 218 220 213 207 207 208 208 206 206 211 220 231 237 234 226 238 252 252 238 232 233 236 241 249 252 245 240 237 234 233 230 228
73 70 67 60 58 54 48 46 43 41 42 42 38 35 36 41 44 41 40 51 64 67 60 51 42 37 29 15 1 346 326 299 270 250 235 236 244 245 243 240 238 238 237 233 230 229 228 226 224 224 223 220 217 220 223 219 213 213 218 219 217 214 213 220 228 227 220 218 231 239 241 234 215 213 220 212 215 231 239 245 238 230 232 234 233
69 63 59 54 52 48 42 39 37 33 32 33 32 27 26 30 33 30 29 32 42 54 54 44 35 29 22 15 8 358 344 325 304 284 264 256 256 258 255 248 244 242 239 237 236 234 233 233 232 229 227 226 225 224 224 220 217 221 228 228 223 221 222 222 218 211 210 214 217 217 221 217 198 206 217 208 197 201 216 229 211 198 207 215 214
65 58 52 47 44 42 38 35 33 29 26 25 23 18 17 19 17 15 16 17 21 37 41 34 24 15 10 5 359 351 344 333 318 302 284 271 264 264 262 255 251 248 244 243 241 238 236 237 237 234 230 230 231 227 221 221 224 230 233 228 221 218 217 214 209 201 193 190 190 193 195 187 188 218 225 205 190 181 181 184 169 159 162 181 195
71 65 59 49 40 37 33 29 30 27 21 19 15 10 10 11 7 5 4 0 2 17 23 16 7 1 355 351 346 340 335 329 321 310 298 288 279 272 264 256 250 248 248 247 244 242 242 241 239 237 235 236 239 236 226 224 228 229 224 216 209 207 210 207 200 189 175 171 174 172 162 159 183 203 199 179 177 172 167 168 163 159 159 173 199
78 72 70 62 50 42 30 25 28 22 14 10 6 6 9 6 3 0 352 343 344 353 354 348 343 340 337 334 331 326 325 324 319 315 314 310 298 285 275 263 251 247 250 249 247 248 248 245 242 239 241 244 244 242 237 234 232 225 212 203 196 193 196 195 187 177 165 171 179 168 151 155 180 179 163 157 155 154 165 175 167 169 173 167 180
65 57 54 55 55 51 41 32 30 21 8 1 358 2 3 358 355 350 336 329 333 335 331 329 327 323 320 318 315 312 313 313 313 316 318 313 304 294 284 273 259 252 252 250 250 251 249 248 245 242 246 249 239 233 233 231 228 218 202 195 192 189 188 185 179 170 152 156 173 171 163 169 174 161 153 153 151 152 176 190 184 194 204 188 167
56 44 35 36 38 40 38 31 24 16 4 355 357 358 352 348 345 337 331 332 333 329 325 323 321 316 312 308 304 302 303 304 304 306 307 306 304 298 289 281 270 261 255 252 252 253 251 250 246 241 246 246 234 230 227 219 215 207 194 190 194 191 187 183 177 167 150 145 159 170 173 175 170 163 159 159 162 163 159 169 188 214 194 147 142
53 45 33 25 22 26 26 18 11 7 359 356 357 349 341 340 336 331 332 333 329 324 320 318 315 311 306 303 301 300 299 298 296 295 293 292 292 292 291 286 278 269 264 259 256 255 254 254 250 243 240 234 224 227 226 216 209 202 190 189 199 196 187 184 175 164 154 147 148 161 172 173 168 168 168 167 175 180 173 171 184 173 134 129 127
41 42 35 18 8 13 13 5 3 2 356 355 351 342 339 340 333 330 332 329 323 319 314 311 307 303 301 298 296 294 292 290 288 286 284 282 280 282 282 279 276 272 269 266 262 257 255 255 253 245 240 234 227 228 227 215 206 200 192 189 193 189 185 184 176 166 157 149 149 162 171 171 169 171 172 174 181 189 194 198 202 193 186 191 200
20 25 25 8 357 3 2 354 356 357 352 349 344 338 339 337 329 329 329 324 320 316 311 309 306 303 300 297 293 290 287 282 279 277 276 276 276 275 274 272 271 267 263 261 260 254 247 244 242 233 232 228 220 223 225 213 203 201 196 189 185 181 190 194 187 172 155 147 156 171 172 170 172 174 176 178 182 190 198 202 204 215 238 269 294
10 15 16 360 350 353 351 349 353 352 347 344 340 336 337 335 333 333 330 324 321 318 314 312 308 304 301 298 295 293 288 282 279 275 273 271 270 269 268 267 266 264 260 257 254 248 237 227 225 223 218 200 189 203 218 208 197 193 187 185 191 209 204 199 191 168 150 150 166 175 172 171 175 173 173 175 175 181 190 190 204 239 275 348 329
3 8 7 354 346 345 344 345 350 348 344 344 343 337 335 336 336 334 330 325 322 319 316 313 309 306 304 301 298 295 290 286 282 277 273 270 268 265 263 261 260 260 258 255 251 246 238 231 228 224 217 197 183 189 194 186 182 179 177 183 199 230 208 197 179 158 153 159 173 174 168 169 173 168 166 169 167 166 172 173 164 116 89 101 200
358 1 360 348 340 339 342 344 345 345 344 343 339 332 329 331 332 329 326 323 319 316 313 310 308 306 303 300 297 295 293 289 284 279 273 268 265 261 259 258 257 257 256 255 251 244 240 237 230 220 215 203 187 181 178 175 177 177 178 185 198 205 202 195 167 157 160 165 169 167 165 166 162 152 151 157 155 151 139 116 107 105 105 149 229
351 353 352 343 336 339 344 343 339 339 340 336 331 326 324 326 325 323 321 319 314 311 308 305 304 303 301 299 298 296 295 292 288 283 277 271 266 261 257 254 252 252 253 254 252 250 247 240 226 212 209 202 185 175 173 175 178 180 183 190 197 195 190 181 162 158 163 165 163 162 164 162 153 148 155 157 143 134 127 115 115 124 129 148 145
346 349 347 341 338 341 341 337 333 332 331 328 325 323 322 322 320 318 317 314 311 308 304 301 299 297 296 294 293 294 293 290 287 283 278 274 269 264 259 254 251 250 250 252 255 261 265 254 232 215 214 204 187 177 177 180 183 185 187 191 191 187 180 172 165 164 164 164 162 159 158 157 153 155 164 166 154 146 147 149 156 165 173 180 180
344 345 342 337 335 335 334 330 329 329 327 325 324 322 321 320 318 316 314 311 308 306 301 297 295 293 291 291 290 291 290 287 286 286 281 275 269 266 264 262 260 257 251 249 255 274 304 263 213 192 216 216 197 185 185 187 188 189 188 187 185 183 179 176 177 177 171 164 158 157 160 163 164 167 171 172 166 160 160 159 156 175 197 187 176
341 337 332 330 330 330 328 327 329 328 325 324 323 320 319 318 316 315 312 309 306 303 299 296 293 290 289 289 288 289 289 288 288 287 286 282 276 269 265 264 268 271 264 253 253 249 185 160 146 147 182 211 215 204 193 191 192 190 186 186 185 180 176 179 183 181 173 163 159 165 175 175 171 172 176 174 166 162 166 165 160 169 187 161 94
336 330 325 325 323 321 322 324 327 326 322 321 319 317 317 317 315 313 310 306 303 300 296 293 290 288 288 287 286 286 285 285 286 286 287 289 285 277 269 261 260 265 267 262 260 258 235 182 148 135 137 143 180 213 196 191 191 188 184 184 180 173 173 182 183 175 166 164 168 176 180 177 173 173 173 168 161 161 170 171 165 168 171 158 132